DECAYED

SL-16 DEB, 22480 (Decayed)

Orbit data source: Space-Track

SL-16 DEB, 22480 was space debris in LEO originally from a launch on Fri, 25 Dec 1992 UTC launched from the Tyuratam Missile And Space Complex (TTMTR). Debris objects in space refer to the collection of defunct objects orbiting the Earth. Examples of debris include non-operational satellites, rocket bodies, and fragments generated from explosions, collisions, or faulty payload assembly.

Not visible in the next 10 days
Identifier
22480, 1992-093FV
Orbit
Decayed
Country
Flag of CISCIS
Related business
Manufacturer
Unknown
Mission
Decayed spacecraft
Bus & Motor
Unknown
Mass
Unknown
Launch date (UTC)
1992-12-25 (33 years ago)
Launch vehicle
Unknown
Launch site
Tyuratam Missile And Space Complex (TTMTR)
Object type
Payload
Rocket body
Debris
Shape & HBR
Unknown shape, 0.1 m
Radar Cross Section
Small (<0.1 m²)

Expand to show TLE details & history
Last TLE update: 9 months ago

TLE from 9 months ago
0 SL-16 DEB
1 22480U 92093FV  25068.10850696  .08450482  20506+0  21957-1 0  9993
2 22480  71.0435 202.0317 0024865 333.6155  26.3796 16.01859255668784
Epoch: 2025-03-09T02:36Z
TLE epoch observation values (Epoch: 2025-03-09T02:36:15.001Z)
Latitude
-0.00004°
Longitude
-4.07571°
Altitude
257.078 km
Speed
7.762 km/s
True Right ascension
13h 28m 07s
True Declination
0° 00' 00"
Sunlit
Object was in full shadow at epoch
Visualization orbit readout
Latitude
Unknown
Longitude
Unknown
Altitude
Unknown
Speed
Unknown
Apparent Right ascension
Unknown
Apparent Declination
Unknown
Sunlit
N/A
Visualization observer readout
Local Sidereal Time
09:31:25
Azimuth
Unknown
Elevation
Unknown
Doppler factor
Unknown
Orbital elements
Apogee altitude
283.534 km
Perigee altitude
250.488 km
Semi-major axis
6,645.148 km
Eccentricity
0.00249
Inclination
71.0435°
RAAN
202.0317°
Arg. of periapsis
333.6155°
True anomaly
26.50655°
Mean anomaly
26.3796°
Eccentric anomaly
26.44304°
Mean motion
4.00669 °/min
Orbital period
89.85 mins
BSTAR
0.021957
Loading maneuver chart data...
Computing Atmospheric mass density...
Loading historical data...
Loading historical data...
Loading historical data...
Loading historical data...
Loading historical data...
Loading historical data...
Loading historical data...

Documentation

Showing up to 5 results
|